K0WU2AZO Weather Reports


time (UTC)temp
C
wind
direction
speed
KPH
gust
KPH
rain 1hr
cm
rain 24hr
cm
rain mn
cm
humidity
%
barometer
mb
20260505041439 11 228 0.0 1.6 0.00 0.00 0.00 73 1010.2
20260505035938 12 219 0.0 3.2 0.00 0.00 0.00 72 1010.2
20260505034439 12 238 0.0 3.2 0.00 0.00 0.00 71 1009.9
20260505032938 12 184 0.0 1.6 0.00 0.00 0.00 70 1010.0
20260505031438 12 233 0.0 3.2 0.00 0.00 0.00 68 1009.9
20260505025941 12 177 0.0 3.2 0.00 0.00 0.00 67 1010.0
20260505024440 13 177 0.0 3.2 0.00 0.00 0.00 65 1010.0
20260505022940 13 232 0.0 4.8 0.00 0.00 0.00 64 1010.2
20260505021437 13 237 0.0 3.2 0.00 0.00 0.00 63 1010.3
20260505015939 13 217 0.0 4.8 0.00 0.00 0.00 61 1010.1
20260505014441 13 225 0.0 4.8 0.00 0.00 0.00 60 1010.1
20260505012941 14 150 1.6 3.2 0.00 0.00 0.00 58 1010.0
20260505011442 15 148 0.0 6.4 0.00 0.00 0.00 56 1009.8
20260505005938 15 247 0.0 6.4 0.00 0.00 0.00 55 1009.6
20260505004437 15 223 3.2 9.7 0.00 0.00 0.00 55 1009.2
20260505002941 16 134 0.0 3.2 0.00 0.00 0.00 53 1008.8
20260505001442 16 209 1.6 6.4 0.00 0.00 0.00 52 1008.1
20260504235943 16 249 3.2 6.4 0.00 0.00 0.00 51 1007.7
20260504234440 17 223 1.6 9.7 0.00 0.00 0.00 50 1007.5
20260504232939 17 165 1.6 9.7 0.00 0.00 0.00 49 1007.4
20260504231437 17 141 3.2 12.9 0.00 0.00 0.00 48 1007.3
20260504225940 18 262 3.2 9.7 0.00 0.00 0.00 47 1007.0
20260504224441 18 248 3.2 8.0 0.00 0.00 0.00 44 1006.8
20260504222939 19 146 1.6 17.7 0.00 0.00 0.00 42 1006.6
20260504221441 20 209 1.6 12.9 0.00 0.00 0.00 41 1006.6
20260504215942 21 244 6.4 11.3 0.00 0.00 0.00 37 1006.5
20260504214438 21 269 1.6 8.0 0.00 0.00 0.00 36 1006.5
20260504212937 21 219 4.8 8.0 0.00 0.00 0.00 34 1006.4
20260504211441 22 240 3.2 9.7 0.00 0.00 0.00 34 1006.3
20260504205942 22 264 4.8 14.5 0.00 0.00 0.00 34 1006.4
20260504204440 22 215 3.2 11.3 0.00 0.00 0.00 33 1006.2
20260504202940 22 250 4.8 12.9 0.00 0.00 0.00 32 1006.2
20260504201441 21 314 6.4 19.3 0.00 0.00 0.00 32 1006.3
20260504195939 22 228 4.8 11.3 0.00 0.00 0.00 32 1006.4
20260504194442 22 279 3.2 12.9 0.00 0.00 0.00 30 1006.5
20260504192941 22 63 4.8 12.9 0.00 0.00 0.00 30 1006.4
20260504191441 22 194 8.0 19.3 0.00 0.00 0.00 29 1006.5
20260504185940 22 259 1.6 11.3 0.00 0.00 0.00 29 1006.6
20260504184440 22 237 6.4 12.9 0.00 0.00 0.00 29 1006.8
20260504182940 22 250 3.2 17.7 0.00 0.00 0.00 31 1006.9
20260504181444 22 255 3.2 14.5 0.00 0.00 0.00 30 1006.8
20260504175941 22 243 8.0 16.1 0.00 0.00 0.00 30 1007.0
20260504174440 22 236 4.8 14.5 0.00 0.00 0.00 31 1007.3
20260504172940 21 226 6.4 14.5 0.00 0.00 0.00 32 1007.3
20260504171441 21 246 8.0 22.5 0.00 0.00 0.00 32 1007.3
20260504081445 6 243 0.0 1.6 0.00 0.05 0.00 64 1010.2
20260504045945 2 234 0.0 0.0 0.00 0.05 0.00 83 1010.1